Location: Roc des P�zouls
(43.9667°N, 3.5500°E)
Time: 05:47:06
(UTC+00:00)

Daily predictions for brighter satellites

Satellite Brightness Start Highest point End
(mag) Time Altitude Azimuth Time Altitude Azimuth Time Altitude Azimuth
Cosmos 1697 Rocket 4.5 03:03:20 27° E 03:03:20 27° E 03:06:39 10° ESE
Cosmos 2082 Rocket 3.7 03:22:45 30° SE 03:24:03 33° ESE 03:29:06 10° NE
CZ-4C R/B 4.0 03:40:02 22° N 03:40:02 22° N 03:42:50 10° NNE
Cosmos 1833 Rocket 3.0 03:46:04 60° ENE 03:46:04 60° ENE 03:50:49 10° NNE
Cosmos 2123 Rocket 3.9 03:47:30 10° N 03:53:43 82° E 03:59:55 10° S
Lacrosse 5 2.3 03:56:32 60° ESE 03:56:32 60° ESE 04:01:06 10° NE
IDEFIX/ARIANE 42P 4.5 03:52:40 10° N 03:54:03 19° N 03:54:03 19° N
ATLAS 2AS CENTAUR R/B 4.4 03:53:43 16° NNW 03:58:33 29° NNE 04:04:45 10° E
ASTEX 1 4.5 03:54:46 10° SSE 03:59:26 44° ENE 04:04:09 10° N
CZ-2C R/B 2.9 03:54:46 10° NNE 03:59:37 55° E 04:01:55 28° SSE
BREEZE-M DEB (TANK) 4.4 04:05:07 30° ENE 04:05:07 30° ENE 04:06:31 10° E
Cosmos 1980 Rocket 2.8 04:02:33 29° N 04:05:17 54° ENE 04:10:50 10° SE
Cosmos 1605 Rocket 4.1 04:00:57 10° S 04:07:08 72° E 04:13:15 10° NNE
Cosmos 2221 3.7 04:09:03 36° SSE 04:09:03 36° SSE 04:11:42 10° SSE
SL-4 R/B 3.5 04:17:16 32° N 04:17:16 32° N 04:21:32 10° ENE
Meteor 2-2 Rocket 4.3 04:15:00 10° N 04:20:39 74° E 04:26:16 10° SSE
Gbstr 26 Del rocket 3.6 04:21:05 41° SSE 04:21:15 41° SE 04:24:48 10° ENE
Cosmos 2369 3.7 04:22:40 60° WSW 04:22:40 60° WSW 04:28:16 10° S
COSMO-SKYMED 1 4.1 04:19:17 10° SE 04:23:14 36° ENE 04:27:13 10° N
GENESIS II 4.4 04:26:44 67° SSE 04:26:44 67° SSE 04:30:14 10° SSE
Meteor 1-31 Rocket 3.1 04:25:04 10° NNE 04:28:09 55° NNE 04:28:09 55° NNE
USA 234 4.5 04:24:00 10° ENE 04:29:27 29° N 04:32:17 21° NNW
SJ 16-02 2.5 04:26:19 10° S 04:30:26 42° ESE 04:34:36 10° NNE
Meteor 1-27 4.2 04:24:45 11° NNW 04:30:27 69° W 04:36:14 10° S
STARLINK-52 4.3 04:32:53 36° NNE 04:32:53 36° NNE 04:35:15 10° NE
COSMOS 2455 4.2 04:27:08 11° NNW 04:32:22 35° NE 04:37:48 10° ESE
PAYLOAD A 4.1 04:28:01 10° N 04:33:15 61° WNW 04:35:54 29° SW
Cosmos 2360 4.1 04:31:13 34° NNW 04:33:48 78° WSW 04:39:30 10° SSE
Cosmos 1869 3.5 04:33:50 24° N 04:36:06 68° E 04:40:00 10° SSE
Cosmos 1484 Rocket 3.8 04:32:14 10° NNE 04:36:07 48° E 04:39:59 10° S
Cosmos 2112 Rocket 4.0 04:34:37 20° NNW 04:38:24 85° ENE 04:43:43 10° SSE
MSX 4.0 04:33:17 10° N 04:38:45 46° WNW 04:39:48 41° W
Shenzhou-11 Module 3.5 04:39:55 33° ESE 04:39:55 33° ESE 04:41:37 10° E
COBE Rocket 4.0 04:35:32 10° SSE 04:40:43 87° ENE 04:45:51 10° N
Okean O Rocket 3.7 04:38:28 10° NE 04:42:13 28° E 04:45:56 10° SSE
Cosmos 2278 3.7 04:41:04 37° NW 04:43:02 56° WSW 04:48:36 10° S
Cosmos 1697 Rocket 3.0 04:45:09 40° W 04:45:42 41° WSW 04:50:55 10° S
Cosmos 1680 Rocket 3.4 04:43:01 24° NNW 04:46:13 72° WSW 04:51:29 10° S
STARLINK-29 4.1 04:46:54 37° N 04:46:54 37° N 04:49:39 10° NE
Cosmos 1892 4.0 04:43:01 10° SSE 04:46:35 41° E 04:50:10 10° NNE
H-2A R/B 3.7 04:44:53 10° N 04:47:32 29° NNW 04:47:32 29° NNW
ALOS 3.5 04:47:15 10° NNE 04:51:44 43° E 04:56:10 10° S
Cosmos 1459 Rocket 4.4 04:48:49 10° S 04:54:52 63° E 05:01:04 10° NNE
STARLINK-60 4.4 04:55:29 28° N 04:55:29 28° N 04:58:05 10° NE
SL-27 R/B 2.1 04:57:13 21° SSW 04:59:19 81° WNW 05:02:39 10° NNE
FALCON 9 DEB 4.2 05:04:14 30° NNW 05:04:21 30° NNW 05:07:26 10° NE
Cosmos 158 Rocket 3.8 04:59:53 10° NNW 05:04:54 87° WSW 05:09:47 10° SSE
CZ-4B DEB 4.4 04:59:30 10° NNE 05:04:59 74° ESE 05:10:27 10° S
STARLINK-80 3.8 05:02:24 19° SW 05:05:01 61° SE 05:08:49 10° ENE
USA 116 3.8 05:03:53 10° SSE 05:06:58 59° ENE 05:10:17 10° N
PSLV R/B 3.6 05:03:18 10° N 05:07:07 67° WNW 05:11:00 10° SSW
Cosmos 990 Rocket 3.9 05:02:07 10° SSW 05:07:17 77° WNW 05:12:31 10° NNE
Cosmos 2082 Rocket 2.6 05:04:43 21° WSW 05:08:02 40° WNW 05:13:24 10° NNE
In-Cosmos 22 Rocket 4.1 05:03:07 10° S 05:08:28 90° W 05:13:57 10° N
SKYMED 2 3.5 05:06:57 10° S 05:11:16 71° WSW 05:15:37 10° NNW
deb Kosmos-1763 4.1 05:08:00 10° SW 05:11:38 55° WNW 05:15:18 10° NNE
Cosmos 2100 Rocket 3.9 05:07:38 10° S 05:13:51 87° W 05:20:04 10° N
Cosmos 1825 4.2 05:11:05 10° SSE 05:14:25 31° E 05:17:47 10° NNE
Helios 1A Rocket 3.3 05:12:48 10° NNE 05:16:55 67° ESE 05:20:58 10° S
NOSS 3-3 (A) 3.9 05:12:20 10° SW 05:18:14 75° NW 05:24:53 10° NE
NOSS 3-3 (C) 3.9 05:12:27 10° SW 05:18:20 76° NW 05:24:59 10° NE
STARLINK-48 3.9 05:15:22 10° SW 05:19:12 62° SE 05:23:04 10° ENE
Cosmos 1328 Rocket 4.0 05:16:55 10° N 05:21:14 62° E 05:25:30 10° SSE
Cosmos 839 Rocket 4.5 05:15:57 10° WSW 05:22:45 44° NW 05:28:45 10° NNE
Cosmos 1802 Rocket 4.1 05:19:30 10° S 05:25:57 89° E 05:32:24 10° N
CZ-4C R/B 4.2 05:25:13 10° NW 05:28:13 14° N 05:31:35 10° NNE
Lacrosse 5 rocket 3.5 05:27:28 10° NNW 05:28:41 11° N 05:29:54 10° NNE
Cosmos 1151 Rocket 3.4 05:24:30 10° N 05:28:54 70° E 05:33:14 10° SSE
Cosmos 1833 Rocket 3.9 05:27:50 18° WNW 05:29:42 21° NW 05:33:54 10° N
Cosmos 2058 3.7 05:27:51 10° SW 05:31:34 30° WNW 05:35:19 10° NNW
Cosmos 1898 Rocket 3.8 05:27:40 10° SW 05:32:40 45° WNW 05:37:44 10° N
Cosmos 2061 Rocket 4.0 05:28:05 10° S 05:34:21 89° W 05:40:37 10° N
USA 267 4.3 05:31:04 10° ENE 05:37:21 48° SE 05:43:37 10° SSW
CZ-2C R/B 3.7 05:33:59 10° NNW 05:37:23 19° WNW 05:40:43 10° WSW
CZ-4B R/B 4.2 05:36:12 10° NNW 05:38:16 16° WNW 05:38:16 16° WNW
Lacrosse 5 2.7 05:35:47 15° W 05:39:20 33° NNW 05:43:57 10° NE
SL-16 R/B 2.2 05:34:40 10° NNW 05:40:24 88° WSW 05:46:04 10° SSE
Radarsat Rocket 4.4 05:36:17 10° NNE 05:42:08 66° ESE 05:47:59 10° S
Cosmos 1408 Rocket 3.4 05:37:58 10° S 05:42:16 83° W 05:46:38 10° N
Cosmos 2360 Rocket 3.3 05:37:53 10° NNW 05:43:22 45° ENE 05:48:47 10° SE
Cosmos 1437 4.1 05:41:19 10° SSE 05:44:13 41° E 05:47:07 10° NNE
Cosmos 2150 Rocket 4.4 05:39:28 10° S 05:44:55 73° ESE 05:50:21 10° NNE
Okean 3 Rocket 4.1 05:41:14 10° SW 05:45:28 39° WNW 05:49:43 10° N
Cosmos 1937 Rocket 3.7 05:41:43 10° SW 05:46:39 46° WNW 05:51:37 10° N
STARLINK-43 3.8 05:44:35 12° W 05:47:50 43° NNW 05:51:26 10° NE
Cosmos 1980 Rocket 3.3 05:44:27 10° NW 05:48:52 24° W 05:53:16 10° SSW
ATLAS 2AS CENTAUR R/B 3.0 05:42:55 10° NW 05:50:39 86° NE 05:57:42 10° SE
Cosmos 2322 Rocket 2.2 05:45:57 10° NNW 05:51:38 83° WSW 05:57:18 10° SSE
Cosmos 2173 Rocket 4.2 05:46:53 10° SSW 05:52:55 48° WNW 05:58:55 10° N
NOAA 6 4.0 05:48:21 10° N 05:53:25 63° WNW 05:58:28 10° SSW
Cosmos 1766 Rocket 3.9 05:49:44 10° SSW 05:53:48 40° WNW 05:57:54 10° N
SL-4 R/B 3.0 05:52:59 10° NW 05:57:42 49° NNE 06:02:20 10° E
COSMO-SKYMED 1 3.8 05:56:07 10° SW 05:59:29 22° W 06:02:53 10° NW
STARLINK-45 4.5 05:59:56 10° SW 06:03:58 53° SE 06:08:00 10° ENE
Cosmos 2233 Rocket 4.2 06:01:42 10° S 06:07:56 81° E 06:14:16 10° N
Gbstr 26 Del rocket 3.2 06:04:28 10° W 06:08:03 39° NNW 06:11:37 10° NE
Abrixas rocket 4.3 06:06:15 10° SSW 06:08:51 27° SE 06:11:28 10° E
Cosmos 1864 Rocket 4.5 06:02:57 10° SSW 06:09:00 64° W 06:15:09 10° N
SJ 16-02 2.6 06:05:57 10° WSW 06:09:13 20° WNW 06:12:30 10° N
Cosmos 1484 Rocket 4.4 06:07:46 10° NNW 06:10:09 15° WNW 06:12:31 10° W
Cosmos 1400 Rocket 3.4 06:06:16 10° N 06:10:21 65° ENE 06:14:22 10° SSE
STARLINK-32 4.5 06:06:22 10° SW 06:10:24 55° SE 06:14:28 10° ENE
USA 234 4.0 06:05:20 10° E 06:11:31 47° NNE 06:17:44 10° NW
